AIC2531 VABB-VOBL

Flight info

Callsign AIC2531
Flight time 1h 11m
Altitude 35000
Route VEVAK2A EPKOS Q9 RIKBU RIKBU7E
Aircraft B742/H-SDFHIRWXY/L

Departure

Time 2026-04-29 15:27
Airport Chhatrapati Shivaji Maharaj International Airport (VABB)

Arrival

Time 2026-04-29 16:38
Airport Kempegowda International Airport Bengaluru (VOBL)
Time Latitude Longitude Altitude Speed Heading
2026-04-29 15:04 19.08089 72.87317 29 ft 0 kts 202°
2026-04-29 15:15 19.08098 72.87320 29 ft 0 kts 202°
2026-04-29 15:15 19.08108 72.87324 29 ft 2 kts 191°
2026-04-29 15:15 19.08123 72.87324 30 ft 2 kts 169°
2026-04-29 15:16 19.08137 72.87319 30 ft 2 kts 148°
2026-04-29 15:16 19.08148 72.87310 30 ft 0 kts 130°
2026-04-29 15:16 19.08152 72.87305 30 ft 1 kts 129°
2026-04-29 15:19 19.08150 72.87307 30 ft 4 kts 128°
2026-04-29 15:19 19.08109 72.87363 29 ft 10 kts 127°
2026-04-29 15:19 19.08069 72.87428 28 ft 10 kts 118°
2026-04-29 15:19 19.08035 72.87502 27 ft 11 kts 111°
2026-04-29 15:20 19.08031 72.87576 27 ft 9 kts 65°
2026-04-29 15:20 19.08063 72.87622 27 ft 7 kts 52°
2026-04-29 15:20 19.08096 72.87667 27 ft 9 kts 50°
2026-04-29 15:20 19.08135 72.87676 27 ft 3 kts 345°
2026-04-29 15:21 19.08199 72.87665 27 ft 11 kts 349°
2026-04-29 15:21 19.08274 72.87638 27 ft 11 kts 332°
2026-04-29 15:21 19.08345 72.87595 27 ft 13 kts 327°
2026-04-29 15:21 19.08430 72.87513 27 ft 17 kts 313°
2026-04-29 15:22 19.08516 72.87418 27 ft 18 kts 314°
2026-04-29 15:22 19.08603 72.87322 27 ft 18 kts 314°
2026-04-29 15:22 19.08691 72.87225 29 ft 18 kts 313°
2026-04-29 15:22 19.08798 72.87113 30 ft 24 kts 316°
2026-04-29 15:23 19.08917 72.86982 31 ft 24 kts 314°
2026-04-29 15:23 19.09035 72.86910 32 ft 17 kts 54°
2026-04-29 15:23 19.09046 72.87047 31 ft 22 kts 90°
2026-04-29 15:23 19.09047 72.87223 31 ft 24 kts 89°
2026-04-29 15:24 19.09050 72.87402 31 ft 24 kts 89°
2026-04-29 15:24 19.09051 72.87583 33 ft 24 kts 89°
2026-04-29 15:24 19.09055 72.87761 33 ft 24 kts 89°
2026-04-29 15:24 19.09057 72.87939 38 ft 23 kts 89°
2026-04-29 15:25 19.09013 72.88036 41 ft 11 kts 188°
2026-04-29 15:25 19.08938 72.88022 39 ft 9 kts 197°
2026-04-29 15:25 19.08892 72.87970 38 ft 10 kts 254°
2026-04-29 15:25 19.08886 72.87873 35 ft 17 kts 269°
2026-04-29 15:26 19.08883 72.87687 31 ft 37 kts 269°
2026-04-29 15:26 19.08878 72.87260 28 ft 81 kts 268°
2026-04-29 15:26 19.08864 72.86455 37 ft 137 kts 268°
2026-04-29 15:26 19.08841 72.85319 224 ft 162 kts 265°
2026-04-29 15:27 19.08818 72.84133 645 ft 170 kts 265°
2026-04-29 15:27 19.08801 72.82819 973 ft 187 kts 266°
2026-04-29 15:27 19.08783 72.81370 1294 ft 206 kts 266°
2026-04-29 15:27 19.08763 72.79793 1611 ft 225 kts 266°
2026-04-29 15:28 19.08742 72.78075 1926 ft 242 kts 267°
2026-04-29 15:28 19.08726 72.76875 2133 ft 250 kts 266°
2026-04-29 15:28 19.08023 72.74540 2464 ft 263 kts 229°
2026-04-29 15:28 19.06519 72.73458 3037 ft 264 kts 196°
2026-04-29 15:29 19.04699 72.73344 3527 ft 270 kts 173°
2026-04-29 15:29 19.00960 72.74668 3952 ft 305 kts 148°
2026-04-29 15:30 18.97272 72.77213 4784 ft 322 kts 148°
2026-04-29 15:30 18.95380 72.78480 5379 ft 324 kts 148°
2026-04-29 15:30 18.93461 72.79746 5971 ft 327 kts 148°
2026-04-29 15:30 18.91528 72.81015 6549 ft 329 kts 148°
2026-04-29 15:31 18.89597 72.82278 7114 ft 332 kts 148°
2026-04-29 15:31 18.87680 72.83534 7659 ft 335 kts 148°
2026-04-29 15:31 18.86231 72.84483 8054 ft 337 kts 148°
2026-04-29 15:31 18.86151 72.84536 8076 ft 337 kts 148°
2026-04-29 15:32 18.84864 72.85378 8418 ft 339 kts 148°
2026-04-29 15:32 18.82873 72.86681 8936 ft 342 kts 148°
2026-04-29 15:32 18.80858 72.87997 9469 ft 345 kts 148°
2026-04-29 15:33 18.78797 72.89345 10048 ft 348 kts 148°
2026-04-29 15:33 18.76741 72.90688 10633 ft 352 kts 148°
2026-04-29 15:33 18.74644 72.92058 11224 ft 355 kts 148°
2026-04-29 15:33 18.72559 72.93419 11826 ft 359 kts 148°
2026-04-29 15:34 18.70429 72.94810 12475 ft 363 kts 148°
2026-04-29 15:34 18.68293 72.96204 13166 ft 366 kts 148°
2026-04-29 15:34 18.66103 72.97633 13894 ft 370 kts 147°
2026-04-29 15:34 18.63902 72.99068 14309 ft 380 kts 147°
2026-04-29 15:35 18.61678 73.00517 14677 ft 376 kts 147°
2026-04-29 15:35 18.59433 73.01980 15033 ft 375 kts 147°
2026-04-29 15:35 18.57217 73.03425 15565 ft 380 kts 147°
2026-04-29 15:35 18.54971 73.04887 16351 ft 382 kts 147°
2026-04-29 15:36 18.52719 73.06354 17082 ft 386 kts 147°
2026-04-29 15:36 18.50427 73.07846 17797 ft 390 kts 147°
2026-04-29 15:36 18.48132 73.09340 18507 ft 393 kts 147°
2026-04-29 15:36 18.45791 73.10863 19231 ft 397 kts 147°
2026-04-29 15:37 18.43445 73.12389 19951 ft 401 kts 147°
2026-04-29 15:37 18.41412 73.13711 20566 ft 404 kts 147°
2026-04-29 15:37 18.39258 73.15111 21195 ft 408 kts 147°
2026-04-29 15:37 18.36421 73.16954 22006 ft 412 kts 147°
2026-04-29 15:38 18.33988 73.18535 22684 ft 416 kts 147°
2026-04-29 15:38 18.31522 73.20136 23356 ft 419 kts 147°
2026-04-29 15:38 18.29032 73.21753 24022 ft 423 kts 147°
2026-04-29 15:38 18.26542 73.23369 24670 ft 426 kts 147°
2026-04-29 15:39 18.24032 73.24998 25308 ft 430 kts 147°
2026-04-29 15:39 18.21490 73.26646 25949 ft 434 kts 147°
2026-04-29 15:39 18.18940 73.28300 26586 ft 437 kts 147°
2026-04-29 15:39 18.16350 73.29978 27225 ft 441 kts 147°
2026-04-29 15:40 18.13750 73.31664 27824 ft 444 kts 147°
2026-04-29 15:40 18.11117 73.33369 28386 ft 447 kts 147°
2026-04-29 15:40 18.08458 73.35090 28920 ft 450 kts 147°
2026-04-29 15:40 18.05814 73.36801 29423 ft 453 kts 147°
2026-04-29 15:41 18.03141 73.38531 29906 ft 456 kts 147°
2026-04-29 15:41 18.00437 73.40279 30359 ft 459 kts 147°
2026-04-29 15:41 17.97719 73.42036 30775 ft 461 kts 147°
2026-04-29 15:41 17.95033 73.43771 31155 ft 464 kts 147°
2026-04-29 15:42 17.92289 73.45544 31516 ft 466 kts 147°
2026-04-29 15:42 17.89524 73.47330 31863 ft 468 kts 147°
2026-04-29 15:42 17.86777 73.49103 32199 ft 470 kts 147°
2026-04-29 15:42 17.84000 73.50897 32528 ft 472 kts 147°
2026-04-29 15:43 17.81182 73.52714 32854 ft 474 kts 147°
2026-04-29 15:43 17.78393 73.54513 33170 ft 476 kts 147°
2026-04-29 15:43 17.75596 73.56316 33479 ft 478 kts 147°
2026-04-29 15:43 17.72773 73.58134 33784 ft 480 kts 147°
2026-04-29 15:44 17.69938 73.59960 34158 ft 480 kts 147°
2026-04-29 15:44 17.67125 73.61771 34640 ft 477 kts 147°
2026-04-29 15:44 17.64288 73.63596 35024 ft 476 kts 147°
2026-04-29 15:44 17.61497 73.65392 35402 ft 475 kts 148°
2026-04-29 15:45 17.58668 73.67199 35766 ft 474 kts 148°
2026-04-29 15:45 17.55895 73.68964 36108 ft 473 kts 148°
2026-04-29 15:45 17.53127 73.70730 36412 ft 473 kts 148°
2026-04-29 15:45 17.50302 73.72536 36671 ft 473 kts 148°
2026-04-29 15:46 17.47514 73.74322 36764 ft 476 kts 148°
2026-04-29 15:46 17.41895 73.77926 36783 ft 476 kts 148°
2026-04-29 15:47 17.36302 73.81512 36783 ft 470 kts 148°
2026-04-29 15:47 17.30723 73.85088 36786 ft 474 kts 148°
2026-04-29 15:48 17.25152 73.88657 36785 ft 474 kts 148°
2026-04-29 15:48 17.19567 73.92230 36785 ft 472 kts 148°
2026-04-29 15:49 17.13972 73.95808 36786 ft 473 kts 148°
2026-04-29 15:49 17.08396 73.99371 36785 ft 474 kts 148°
2026-04-29 15:50 17.02773 74.02962 36786 ft 479 kts 148°
2026-04-29 15:50 16.97065 74.06604 36786 ft 483 kts 148°
2026-04-29 15:51 16.91397 74.10274 36781 ft 483 kts 143°
2026-04-29 15:51 16.86583 74.14901 36787 ft 481 kts 131°
2026-04-29 15:52 16.82318 74.20232 36786 ft 481 kts 128°
2026-04-29 15:52 16.78186 74.25705 36785 ft 481 kts 128°
2026-04-29 15:53 16.74088 74.31145 36785 ft 481 kts 128°
2026-04-29 15:53 16.69968 74.36592 36786 ft 481 kts 128°
2026-04-29 15:54 16.65819 74.42072 36785 ft 481 kts 128°
2026-04-29 15:54 16.61702 74.47504 36785 ft 481 kts 128°
2026-04-29 15:55 16.57563 74.52956 36785 ft 481 kts 128°
2026-04-29 15:55 16.53434 74.58387 36786 ft 481 kts 128°
2026-04-29 15:56 16.49304 74.63813 36785 ft 480 kts 128°
2026-04-29 15:56 16.45140 74.69259 36785 ft 481 kts 128°
2026-04-29 15:57 16.40996 74.74661 36786 ft 481 kts 128°
2026-04-29 15:57 16.36839 74.80100 36785 ft 481 kts 128°
2026-04-29 15:58 16.32690 74.85534 36786 ft 481 kts 128°
2026-04-29 15:58 16.28567 74.90930 36787 ft 480 kts 128°
2026-04-29 15:59 16.24408 74.96370 36790 ft 479 kts 128°
2026-04-29 15:59 16.20275 75.01773 36791 ft 477 kts 127°
2026-04-29 16:00 16.16171 75.07133 36788 ft 477 kts 127°
2026-04-29 16:00 16.12049 75.12513 36785 ft 476 kts 127°
2026-04-29 16:01 16.07936 75.17877 36788 ft 476 kts 127°
2026-04-29 16:01 16.03829 75.23231 36789 ft 477 kts 127°
2026-04-29 16:02 15.99693 75.28616 36787 ft 476 kts 127°
2026-04-29 16:02 15.95577 75.33972 36786 ft 476 kts 127°
2026-04-29 16:03 15.91473 75.39310 36787 ft 476 kts 127°
2026-04-29 16:03 15.87347 75.44672 36793 ft 476 kts 127°
2026-04-29 16:04 15.83219 75.50034 36800 ft 476 kts 127°
2026-04-29 16:04 15.79093 75.55387 36802 ft 477 kts 127°
2026-04-29 16:05 15.74971 75.60731 36800 ft 476 kts 127°
2026-04-29 16:05 15.70834 75.66090 36798 ft 477 kts 127°
2026-04-29 16:06 15.66694 75.71415 36797 ft 477 kts 127°
2026-04-29 16:06 15.62552 75.76751 36799 ft 476 kts 127°
2026-04-29 16:07 15.58407 75.82103 36798 ft 477 kts 127°
2026-04-29 16:07 15.54275 75.87441 36794 ft 477 kts 127°
2026-04-29 16:08 15.50125 75.92799 36794 ft 476 kts 127°
2026-04-29 16:08 15.45998 75.98122 36796 ft 477 kts 127°
2026-04-29 16:09 15.41852 76.03468 36795 ft 477 kts 127°
2026-04-29 16:09 15.37731 76.08775 36791 ft 477 kts 127°
2026-04-29 16:10 15.33590 76.14106 36792 ft 476 kts 127°
2026-04-29 16:10 15.29425 76.19465 36811 ft 476 kts 127°
2026-04-29 16:11 15.25299 76.24769 36844 ft 476 kts 127°
2026-04-29 16:11 15.21173 76.30068 36890 ft 476 kts 127°
2026-04-29 16:12 15.16828 76.35113 36931 ft 479 kts 137°
2026-04-29 16:12 15.11559 76.39223 36934 ft 482 kts 144°
2026-04-29 16:13 15.05977 76.42956 36916 ft 481 kts 146°
2026-04-29 16:13 15.00320 76.46641 36919 ft 481 kts 146°
2026-04-29 16:14 14.94690 76.50316 36722 ft 488 kts 146°
2026-04-29 16:14 14.91996 76.52079 36386 ft 496 kts 146°
2026-04-29 16:14 14.89109 76.53967 36026 ft 495 kts 146°
2026-04-29 16:14 14.86183 76.55879 35656 ft 489 kts 146°
2026-04-29 16:15 14.83346 76.57732 35287 ft 483 kts 145°
2026-04-29 16:15 14.80548 76.59560 34781 ft 480 kts 145°
2026-04-29 16:15 14.77732 76.61400 34265 ft 477 kts 145°
2026-04-29 16:15 14.74956 76.63213 33753 ft 473 kts 145°
2026-04-29 16:16 14.72228 76.64996 33246 ft 470 kts 145°
2026-04-29 16:16 14.69462 76.66796 32730 ft 467 kts 146°
2026-04-29 16:16 14.66746 76.68558 32219 ft 463 kts 146°
2026-04-29 16:16 14.64062 76.70300 31711 ft 460 kts 146°
2026-04-29 16:17 14.61386 76.72040 31201 ft 457 kts 146°
2026-04-29 16:17 14.58724 76.73773 30664 ft 455 kts 146°
2026-04-29 16:17 14.56079 76.75496 30117 ft 453 kts 146°
2026-04-29 16:17 14.53399 76.77243 29560 ft 451 kts 146°
2026-04-29 16:18 14.50760 76.78963 29009 ft 449 kts 146°
2026-04-29 16:18 14.48143 76.80667 28461 ft 447 kts 146°
2026-04-29 16:18 14.45530 76.82369 27911 ft 445 kts 146°
2026-04-29 16:18 14.42935 76.84059 27363 ft 444 kts 146°
2026-04-29 16:19 14.40362 76.85735 26817 ft 442 kts 146°
2026-04-29 16:19 14.37788 76.87410 26269 ft 440 kts 146°
2026-04-29 16:19 14.35210 76.89088 25717 ft 437 kts 146°
2026-04-29 16:19 14.32658 76.90748 25167 ft 434 kts 146°
2026-04-29 16:20 14.30129 76.92392 24617 ft 430 kts 146°
2026-04-29 16:20 14.27639 76.94011 24071 ft 426 kts 146°
2026-04-29 16:20 14.25179 76.95609 23526 ft 421 kts 146°
2026-04-29 16:20 14.22737 76.97197 22979 ft 416 kts 146°
2026-04-29 16:21 14.20324 76.98767 22432 ft 412 kts 146°
2026-04-29 16:21 14.17918 77.00336 21883 ft 410 kts 146°
2026-04-29 16:21 14.15534 77.01890 21335 ft 408 kts 146°
2026-04-29 16:21 14.13137 77.03451 20781 ft 405 kts 146°
2026-04-29 16:22 14.10798 77.04976 20237 ft 403 kts 146°
2026-04-29 16:22 14.08444 77.06509 19707 ft 399 kts 146°
2026-04-29 16:22 14.06122 77.08021 19199 ft 397 kts 146°
2026-04-29 16:22 14.03779 77.09545 18695 ft 395 kts 146°
2026-04-29 16:23 14.01487 77.11037 18197 ft 392 kts 146°
2026-04-29 16:23 13.99185 77.12534 17695 ft 390 kts 146°
2026-04-29 16:23 13.96927 77.14003 17199 ft 387 kts 146°
2026-04-29 16:23 13.94706 77.15447 16708 ft 385 kts 146°
2026-04-29 16:24 13.92411 77.16939 16197 ft 382 kts 146°
2026-04-29 16:24 13.90187 77.18384 15783 ft 378 kts 146°
2026-04-29 16:24 13.87957 77.19833 15403 ft 378 kts 146°
2026-04-29 16:24 13.85772 77.21251 14925 ft 373 kts 146°
2026-04-29 16:25 13.83622 77.22646 14437 ft 362 kts 146°
2026-04-29 16:25 13.81504 77.24021 13943 ft 352 kts 146°
2026-04-29 16:25 13.79496 77.25324 13461 ft 343 kts 146°
2026-04-29 16:25 13.77498 77.26621 13004 ft 332 kts 147°
2026-04-29 16:26 13.75589 77.27859 12569 ft 325 kts 147°
2026-04-29 16:26 13.73698 77.29086 12126 ft 316 kts 147°
2026-04-29 16:26 13.71873 77.30270 11690 ft 312 kts 147°
2026-04-29 16:26 13.70046 77.31456 11250 ft 311 kts 147°
2026-04-29 16:27 13.68215 77.32643 10808 ft 309 kts 147°
2026-04-29 16:27 13.66403 77.33818 10367 ft 308 kts 147°
2026-04-29 16:27 13.64611 77.34979 9929 ft 306 kts 147°
2026-04-29 16:27 13.62803 77.36151 9485 ft 304 kts 147°
2026-04-29 16:28 13.61045 77.37290 9051 ft 302 kts 148°
2026-04-29 16:28 13.59248 77.38422 8671 ft 300 kts 152°
2026-04-29 16:28 13.57340 77.39240 8285 ft 297 kts 170°
2026-04-29 16:28 13.55317 77.39449 8034 ft 294 kts 178°
2026-04-29 16:29 13.53258 77.39537 7781 ft 296 kts 179°
2026-04-29 16:29 13.51215 77.39612 7313 ft 293 kts 179°
2026-04-29 16:29 13.49214 77.39686 6882 ft 288 kts 179°
2026-04-29 16:29 13.47230 77.39761 6507 ft 287 kts 179°
2026-04-29 16:30 13.45243 77.39836 6141 ft 284 kts 179°
2026-04-29 16:30 13.43314 77.39911 5942 ft 268 kts 179°
2026-04-29 16:30 13.41531 77.39983 5888 ft 247 kts 179°
2026-04-29 16:30 13.39863 77.40051 5883 ft 240 kts 179°
2026-04-29 16:31 13.38190 77.40121 5883 ft 239 kts 179°
2026-04-29 16:31 13.36535 77.40190 5883 ft 239 kts 179°
2026-04-29 16:31 13.34873 77.40259 5883 ft 239 kts 179°
2026-04-29 16:31 13.33218 77.40328 5883 ft 239 kts 179°
2026-04-29 16:32 13.31560 77.40398 5883 ft 239 kts 179°
2026-04-29 16:32 13.29896 77.40467 5883 ft 239 kts 179°
2026-04-29 16:32 13.28264 77.40638 5870 ft 239 kts 161°
2026-04-29 16:32 13.26916 77.41612 5883 ft 243 kts 126°
2026-04-29 16:33 13.25213 77.44600 5883 ft 243 kts 119°
2026-04-29 16:33 13.24427 77.46091 5873 ft 227 kts 119°
2026-04-29 16:33 13.23702 77.47471 5878 ft 211 kts 119°
2026-04-29 16:34 13.23014 77.48783 5882 ft 210 kts 119°
2026-04-29 16:34 13.22319 77.50108 5883 ft 210 kts 119°
2026-04-29 16:34 13.21627 77.51423 5883 ft 210 kts 119°
2026-04-29 16:34 13.20949 77.52757 5869 ft 210 kts 105°
2026-04-29 16:35 13.20867 77.54252 5726 ft 213 kts 89°
2026-04-29 16:35 13.20845 77.55756 5451 ft 207 kts 91°
2026-04-29 16:35 13.20815 77.57178 5179 ft 190 kts 91°
2026-04-29 16:35 13.20798 77.58478 4987 ft 177 kts 91°
2026-04-29 16:36 13.20785 77.59733 4764 ft 172 kts 91°
2026-04-29 16:36 13.20775 77.60936 4487 ft 168 kts 91°
2026-04-29 16:36 13.20767 77.62128 4274 ft 166 kts 90°
2026-04-29 16:36 13.20760 77.63311 4055 ft 166 kts 91°
2026-04-29 16:37 13.20743 77.64490 3801 ft 165 kts 91°
2026-04-29 16:37 13.20741 77.65664 3610 ft 163 kts 91°
2026-04-29 16:37 13.20732 77.66841 3403 ft 164 kts 92°
2026-04-29 16:37 13.20721 77.67617 3231 ft 164 kts 91°
2026-04-29 16:38 13.20718 77.69131 3012 ft 149 kts 93°
2026-04-29 16:38 13.20701 77.70060 3011 ft 91 kts 90°
2026-04-29 16:38 13.20675 77.70467 3011 ft 21 kts 107°